ULK2200 EDNY-LOWG

Flight info

Callsign ULK2200
Flight time 0h 45m
Altitude 31000
Route BEMKI1E BEMKI T23 BIRGI DCT INSEL DCT NAKUM DCT ABIRI ABIRI2M
Aircraft A319/M-SDE3FGHIRWY/LB1

Departure

Time 2026-04-21 13:37
Airport Bodensee Airport Friedrichshafen (EDNY)

Arrival

Time 2026-04-21 14:22
Airport Graz Airport (LOWG)
Time Latitude Longitude Altitude Speed Heading
2026-04-21 13:24 47.67307 9.52252 1368 ft 0 kts 194°
2026-04-21 13:31 47.67306 9.52252 1368 ft 0 kts 199°
2026-04-21 13:31 47.67306 9.52247 1368 ft 0 kts 232°
2026-04-21 13:32 47.67308 9.52242 1368 ft 0 kts 275°
2026-04-21 13:32 47.67310 9.52241 1368 ft 0 kts 300°
2026-04-21 13:32 47.67311 9.52240 1367 ft 1 kts 305°
2026-04-21 13:32 47.67331 9.52218 1367 ft 8 kts 320°
2026-04-21 13:33 47.67330 9.52137 1367 ft 8 kts 245°
2026-04-21 13:33 47.67303 9.52068 1367 ft 9 kts 241°
2026-04-21 13:33 47.67267 9.51973 1367 ft 13 kts 240°
2026-04-21 13:33 47.67216 9.51840 1365 ft 18 kts 239°
2026-04-21 13:34 47.67149 9.51668 1363 ft 21 kts 240°
2026-04-21 13:34 47.67072 9.51469 1360 ft 24 kts 240°
2026-04-21 13:34 47.66987 9.51251 1357 ft 25 kts 240°
2026-04-21 13:34 47.66896 9.51017 1352 ft 27 kts 240°
2026-04-21 13:35 47.66794 9.50784 1351 ft 28 kts 223°
2026-04-21 13:35 47.66655 9.50616 1349 ft 24 kts 239°
2026-04-21 13:35 47.66570 9.50396 1350 ft 25 kts 240°
2026-04-21 13:35 47.66481 9.50165 1346 ft 26 kts 246°
2026-04-21 13:36 47.66529 9.49916 1343 ft 26 kts 300°
2026-04-21 13:36 47.66621 9.49843 1342 ft 17 kts 33°
2026-04-21 13:36 47.66754 9.50172 1351 ft 71 kts 60°
2026-04-21 13:36 47.67113 9.51098 1360 ft 133 kts 60°
2026-04-21 13:37 47.67579 9.52327 1784 ft 135 kts 60°
2026-04-21 13:37 47.68045 9.53543 2253 ft 136 kts 59°
2026-04-21 13:37 47.68520 9.54766 2701 ft 138 kts 58°
2026-04-21 13:37 47.69004 9.56010 3107 ft 144 kts 58°
2026-04-21 13:38 47.69548 9.57402 3347 ft 168 kts 59°
2026-04-21 13:38 47.70175 9.59008 3487 ft 196 kts 59°
2026-04-21 13:38 47.70895 9.60865 3885 ft 215 kts 60°
2026-04-21 13:38 47.71354 9.62983 4598 ft 224 kts 83°
2026-04-21 13:39 47.71483 9.65306 5278 ft 232 kts 85°
2026-04-21 13:39 47.71597 9.67716 6102 ft 236 kts 85°
2026-04-21 13:39 47.71707 9.70158 6942 ft 239 kts 85°
2026-04-21 13:39 47.71814 9.72631 7756 ft 242 kts 86°
2026-04-21 13:40 47.71929 9.75146 8576 ft 246 kts 85°
2026-04-21 13:40 47.72043 9.77688 9368 ft 250 kts 86°
2026-04-21 13:40 47.72073 9.80271 10150 ft 253 kts 95°
2026-04-21 13:40 47.71636 9.82836 10778 ft 267 kts 113°
2026-04-21 13:41 47.70688 9.85336 11111 ft 290 kts 121°
2026-04-21 13:41 47.69592 9.87996 11410 ft 313 kts 121°
2026-04-21 13:41 47.68420 9.90855 11783 ft 333 kts 121°
2026-04-21 13:41 47.67208 9.93829 12443 ft 340 kts 121°
2026-04-21 13:42 47.66132 9.96986 13171 ft 345 kts 114°
2026-04-21 13:42 47.65151 10.00258 13918 ft 349 kts 114°
2026-04-21 13:42 47.64156 10.03563 14644 ft 353 kts 114°
2026-04-21 13:42 47.63149 10.06901 15347 ft 356 kts 114°
2026-04-21 13:43 47.62128 10.10268 16023 ft 360 kts 114°
2026-04-21 13:43 47.61106 10.13625 16678 ft 364 kts 114°
2026-04-21 13:43 47.60060 10.17058 17336 ft 367 kts 114°
2026-04-21 13:43 47.59005 10.20523 17968 ft 370 kts 114°
2026-04-21 13:44 47.57937 10.24020 18590 ft 374 kts 114°
2026-04-21 13:44 47.56856 10.27549 19179 ft 378 kts 114°
2026-04-21 13:44 47.55826 10.31151 19734 ft 382 kts 108°
2026-04-21 13:44 47.55060 10.34946 20328 ft 386 kts 105°
2026-04-21 13:45 47.54309 10.38775 20891 ft 390 kts 105°
2026-04-21 13:45 47.53544 10.42647 21419 ft 394 kts 105°
2026-04-21 13:45 47.52768 10.46557 21946 ft 398 kts 105°
2026-04-21 13:45 47.51978 10.50508 22456 ft 403 kts 105°
2026-04-21 13:46 47.51180 10.54498 22961 ft 407 kts 106°
2026-04-21 13:46 47.50370 10.58535 23452 ft 411 kts 106°
2026-04-21 13:46 47.49561 10.62557 23921 ft 415 kts 106°
2026-04-21 13:46 47.48730 10.66665 24358 ft 419 kts 106°
2026-04-21 13:47 47.47888 10.70812 24769 ft 424 kts 106°
2026-04-21 13:47 47.47042 10.75007 25159 ft 428 kts 105°
2026-04-21 13:47 47.46424 10.79331 25547 ft 432 kts 99°
2026-04-21 13:47 47.45882 10.83725 25930 ft 437 kts 99°
2026-04-21 13:48 47.45331 10.88160 26290 ft 441 kts 99°
2026-04-21 13:48 47.44770 10.92643 26650 ft 446 kts 99°
2026-04-21 13:48 47.44200 10.97165 27031 ft 450 kts 99°
2026-04-21 13:48 47.43621 11.01724 27398 ft 454 kts 99°
2026-04-21 13:49 47.43226 11.04827 27653 ft 456 kts 99°
2026-04-21 13:49 47.42634 11.09449 27984 ft 460 kts 99°
2026-04-21 13:49 47.42036 11.14105 28338 ft 463 kts 99°
2026-04-21 13:49 47.41442 11.18727 28660 ft 466 kts 99°
2026-04-21 13:50 47.40834 11.23444 28990 ft 469 kts 99°
2026-04-21 13:50 47.40221 11.28193 29318 ft 472 kts 99°
2026-04-21 13:50 47.39602 11.32969 29649 ft 475 kts 99°
2026-04-21 13:50 47.38980 11.37776 29986 ft 478 kts 99°
2026-04-21 13:51 47.38393 11.42622 30317 ft 481 kts 97°
2026-04-21 13:51 47.37934 11.47527 30645 ft 483 kts 95°
2026-04-21 13:51 47.37582 11.52456 30934 ft 485 kts 93°
2026-04-21 13:51 47.37281 11.57408 31022 ft 480 kts 93°
2026-04-21 13:52 47.36993 11.62227 31037 ft 463 kts 93°
2026-04-21 13:52 47.36694 11.66906 31041 ft 454 kts 94°
2026-04-21 13:52 47.36033 11.76104 31046 ft 450 kts 95°
2026-04-21 13:53 47.35322 11.85248 31044 ft 448 kts 95°
2026-04-21 13:53 47.33841 11.94173 31049 ft 450 kts 112°
2026-04-21 13:54 47.30858 12.02280 31050 ft 450 kts 121°
2026-04-21 13:54 47.27696 12.10236 31044 ft 450 kts 121°
2026-04-21 13:55 47.24541 12.18146 31031 ft 450 kts 121°
2026-04-21 13:55 47.21364 12.26096 31016 ft 451 kts 121°
2026-04-21 13:56 47.18164 12.34057 31012 ft 453 kts 122°
2026-04-21 13:56 47.15222 12.42226 31005 ft 454 kts 110°
2026-04-21 13:57 47.13320 12.51089 31007 ft 455 kts 107°
2026-04-21 13:57 47.11437 12.59971 31009 ft 456 kts 107°
2026-04-21 13:58 47.09537 12.68874 31007 ft 457 kts 107°
2026-04-21 13:58 47.07625 12.77782 31010 ft 458 kts 107°
2026-04-21 13:59 47.05705 12.86691 31015 ft 458 kts 107°
2026-04-21 13:59 47.03781 12.95578 31020 ft 460 kts 107°
2026-04-21 14:00 47.01838 13.04523 31023 ft 460 kts 107°
2026-04-21 14:00 47.00867 13.08987 30775 ft 459 kts 107°
2026-04-21 14:00 46.99903 13.13408 30400 ft 453 kts 108°
2026-04-21 14:01 46.98946 13.17780 30023 ft 450 kts 108°
2026-04-21 14:01 46.97991 13.22127 29647 ft 447 kts 108°
2026-04-21 14:01 46.97041 13.26441 29272 ft 444 kts 108°
2026-04-21 14:01 46.96095 13.30728 28899 ft 441 kts 108°
2026-04-21 14:02 46.95151 13.34989 28518 ft 438 kts 108°
2026-04-21 14:02 46.94211 13.39226 28139 ft 435 kts 108°
2026-04-21 14:02 46.93277 13.43429 27765 ft 433 kts 108°
2026-04-21 14:03 46.91431 13.51750 27016 ft 427 kts 108°
2026-04-21 14:03 46.90527 13.55817 26646 ft 424 kts 108°
2026-04-21 14:03 46.89613 13.59917 26271 ft 422 kts 108°
2026-04-21 14:03 46.88704 13.63981 25890 ft 419 kts 108°
2026-04-21 14:04 46.87798 13.68018 25518 ft 416 kts 108°
2026-04-21 14:04 46.86897 13.72026 25145 ft 413 kts 108°
2026-04-21 14:04 46.86008 13.76000 24772 ft 410 kts 108°
2026-04-21 14:04 46.85122 13.79942 24393 ft 407 kts 108°
2026-04-21 14:05 46.84237 13.83863 24012 ft 405 kts 108°
2026-04-21 14:05 46.83357 13.87746 23611 ft 402 kts 109°
2026-04-21 14:05 46.82488 13.91566 23191 ft 400 kts 109°
2026-04-21 14:05 46.81601 13.95458 22762 ft 398 kts 109°
2026-04-21 14:06 46.80741 13.99224 22341 ft 395 kts 109°
2026-04-21 14:06 46.79864 14.03069 21912 ft 392 kts 109°
2026-04-21 14:06 46.79018 14.06788 21485 ft 389 kts 109°
2026-04-21 14:06 46.78165 14.10532 21057 ft 387 kts 109°
2026-04-21 14:07 46.77317 14.14248 20638 ft 385 kts 109°
2026-04-21 14:07 46.76470 14.17940 20213 ft 383 kts 109°
2026-04-21 14:07 46.75625 14.21613 19787 ft 381 kts 109°
2026-04-21 14:07 46.74783 14.25253 19358 ft 377 kts 109°
2026-04-21 14:08 46.73951 14.28847 18933 ft 372 kts 109°
2026-04-21 14:08 46.73145 14.32409 18507 ft 368 kts 105°
2026-04-21 14:08 46.72710 14.36054 18083 ft 363 kts 92°
2026-04-21 14:08 46.72790 14.39702 17656 ft 358 kts 82°
2026-04-21 14:09 46.73027 14.43294 17223 ft 354 kts 83°
2026-04-21 14:09 46.73251 14.46839 16802 ft 349 kts 83°
2026-04-21 14:09 46.73468 14.50339 16379 ft 344 kts 83°
2026-04-21 14:09 46.73677 14.53784 15960 ft 338 kts 83°
2026-04-21 14:10 46.73879 14.57122 15564 ft 333 kts 83°
2026-04-21 14:10 46.74080 14.60464 15161 ft 329 kts 83°
2026-04-21 14:10 46.74281 14.63769 14764 ft 326 kts 83°
2026-04-21 14:10 46.74482 14.67057 14353 ft 327 kts 83°
2026-04-21 14:11 46.74683 14.70364 13902 ft 328 kts 83°
2026-04-21 14:11 46.74883 14.73689 13451 ft 330 kts 83°
2026-04-21 14:11 46.75085 14.77026 13000 ft 330 kts 83°
2026-04-21 14:11 46.75286 14.80357 12549 ft 330 kts 83°
2026-04-21 14:12 46.75485 14.83683 12105 ft 329 kts 83°
2026-04-21 14:12 46.75682 14.87011 11645 ft 328 kts 83°
2026-04-21 14:12 46.75874 14.90280 11181 ft 319 kts 83°
2026-04-21 14:12 46.76060 14.93462 10730 ft 310 kts 83°
2026-04-21 14:13 46.76241 14.96542 10289 ft 300 kts 83°
2026-04-21 14:13 46.76487 14.99521 9853 ft 292 kts 80°
2026-04-21 14:13 46.76797 15.02375 9408 ft 285 kts 79°
2026-04-21 14:13 46.77129 15.05189 8977 ft 276 kts 79°
2026-04-21 14:14 46.77455 15.07909 8650 ft 270 kts 79°
2026-04-21 14:14 46.77768 15.10572 8324 ft 263 kts 79°
2026-04-21 14:14 46.78069 15.13179 7998 ft 258 kts 79°
2026-04-21 14:14 46.78360 15.15750 7674 ft 255 kts 79°
2026-04-21 14:15 46.78645 15.18304 7342 ft 254 kts 79°
2026-04-21 14:15 46.78927 15.20841 6992 ft 253 kts 79°
2026-04-21 14:15 46.79205 15.23364 6654 ft 252 kts 79°
2026-04-21 14:15 46.79480 15.25879 6300 ft 250 kts 79°
2026-04-21 14:16 46.79751 15.28374 5947 ft 249 kts 79°
2026-04-21 14:16 46.80025 15.30865 5602 ft 248 kts 79°
2026-04-21 14:16 46.80295 15.33342 5249 ft 247 kts 79°
2026-04-21 14:16 46.80564 15.35810 4896 ft 246 kts 79°
2026-04-21 14:17 46.80826 15.38237 4557 ft 244 kts 79°
2026-04-21 14:17 46.81088 15.40673 4212 ft 242 kts 79°
2026-04-21 14:17 46.81347 15.43084 3858 ft 238 kts 78°
2026-04-21 14:17 46.81862 15.45310 3571 ft 227 kts 55°
2026-04-21 14:18 46.82924 15.46896 3508 ft 212 kts 31°
2026-04-21 14:18 46.84227 15.47664 3515 ft 195 kts 10°
2026-04-21 14:18 46.85519 15.47693 3498 ft 181 kts 352°
2026-04-21 14:18 46.86752 15.47361 3284 ft 179 kts 350°
2026-04-21 14:19 46.87966 15.47024 3060 ft 175 kts 350°
2026-04-21 14:19 46.89155 15.46696 2841 ft 172 kts 350°
2026-04-21 14:19 46.90283 15.46386 2625 ft 159 kts 350°
2026-04-21 14:19 46.91317 15.46103 2403 ft 144 kts 349°
2026-04-21 14:20 46.92275 15.45841 2215 ft 137 kts 349°
2026-04-21 14:20 46.93202 15.45586 2046 ft 135 kts 349°
2026-04-21 14:20 46.94118 15.45335 1861 ft 133 kts 349°
2026-04-21 14:20 46.95036 15.45083 1690 ft 135 kts 351°
2026-04-21 14:21 46.95983 15.44824 1514 ft 141 kts 349°
2026-04-21 14:21 46.96923 15.44566 1249 ft 133 kts 348°
2026-04-21 14:21 46.97830 15.44314 1134 ft 133 kts 349°
2026-04-21 14:21 46.98666 15.44086 1103 ft 103 kts 349°
2026-04-21 14:22 46.99204 15.43938 1106 ft 54 kts 349°
2026-04-21 14:22 46.99450 15.43869 1111 ft 28 kts 349°
2026-04-21 14:22 46.99617 15.43843 1112 ft 21 kts
2026-04-21 14:22 46.99750 15.43875 1114 ft 19 kts 13°
2026-04-21 14:23 46.99870 15.43923 1112 ft 17 kts 20°
2026-04-21 14:23 46.99934 15.44056 1113 ft 17 kts 79°
2026-04-21 14:23 46.99879 15.44153 1117 ft 14 kts 168°
2026-04-21 14:23 46.99782 15.44179 1112 ft 13 kts 169°
2026-04-21 14:24 46.99688 15.44205 1110 ft 14 kts 169°
2026-04-21 14:24 46.99624 15.44252 1111 ft 10 kts 127°
2026-04-21 14:24 46.99588 15.44322 1107 ft 2 kts 127°
2026-04-21 14:24 46.99588 15.44323 1113 ft 0 kts 127°